CW2285 Weather Reports


Display with metric or nautical units.
time (UTC)temp
F
wind
direction
speed
MPH
gust
MPH
rain 1hr
in
rain 24hr
in
rain mn
in
humidity
%
barometer
mb
20260504225002 78 309 8.0 20.0 0.00 0.00 0.00 29 1007.9
20260504224503 78 284 9.0 17.0 0.00 0.00 0.00 30 1007.8
20260504224002 78 316 7.0 20.0 0.00 0.00 0.00 30 1008.2
20260504223502 78 302 7.0 18.0 0.00 0.00 0.00 29 1008.2
20260504223002 78 290 10.0 18.0 0.00 0.00 0.00 29 1008.1
20260504222503 77 310 7.0 14.0 0.00 0.00 0.00 30 1008.1
20260504222003 78 292 10.0 18.0 0.00 0.00 0.00 30 1008.2
20260504221502 78 280 8.0 20.0 0.00 0.00 0.00 30 1008.2
20260504220502 76 281 10.0 20.0 0.00 0.00 0.00 30 1008.6
20260504220003 76 309 8.0 22.0 0.00 0.00 0.00 31 1008.6
20260504215503 76 282 13.0 21.0 0.00 0.00 0.00 31 1008.6
20260504215002 76 284 12.0 21.0 0.00 0.00 0.00 31 1008.7
20260504214503 76 310 11.0 20.0 0.00 0.00 0.00 31 1008.8
20260504213503 77 304 10.0 21.0 0.00 0.00 0.00 30 1009.1
20260504213002 76 310 6.0 16.0 0.00 0.00 0.00 31 1009.1
20260504212502 76 301 5.0 15.0 0.00 0.00 0.00 30 1009.2
20260504212002 76 299 7.0 24.0 0.00 0.00 0.00 31 1009.3
20260504211502 76 276 7.0 20.0 0.00 0.00 0.00 30 1009.1
20260504211003 77 275 13.0 24.0 0.00 0.00 0.00 29 1009.1
20260504210503 77 280 9.0 15.0 0.00 0.00 0.00 30 1009.3
20260504210003 76 325 9.0 18.0 0.00 0.00 0.00 31 1009.3
20260504205502 77 284 11.0 17.0 0.00 0.00 0.00 30 1009.4
20260504205003 76 306 8.0 18.0 0.00 0.00 0.00 31 1009.3
20260504204503 76 317 8.0 15.0 0.00 0.00 0.00 31 1009.4
20260504204003 76 281 8.0 18.0 0.00 0.00 0.00 31 1009.4
20260504203502 76 305 6.0 16.0 0.00 0.00 0.00 31 1009.6
20260504203002 76 306 6.0 17.0 0.00 0.00 0.00 32 1009.5
20260504202502 75 300 6.0 17.0 0.00 0.00 0.00 32 1009.5
20260504202002 74 271 5.0 14.0 0.00 0.00 0.00 32 1009.6
20260504201502 75 285 7.0 12.0 0.00 0.00 0.00 32 1009.8
20260504201002 76 275 7.0 18.0 0.00 0.00 0.00 32 1009.8
20260504200503 75 316 6.0 14.0 0.00 0.00 0.00 34 1009.8
20260504200002 75 309 6.0 13.0 0.00 0.00 0.00 33 1009.8
20260504195502 75 299 12.0 17.0 0.00 0.00 0.00 33 1009.9
20260504195002 75 295 7.0 14.0 0.00 0.00 0.00 33 1009.8
20260504194502 74 321 5.0 15.0 0.00 0.00 0.00 34 1009.8
20260504194003 74 287 6.0 12.0 0.00 0.00 0.00 34 1010.1
20260504193002 74 246 5.0 12.0 0.00 0.00 0.00 33 1010.3
20260504192502 73 253 4.0 8.0 0.00 0.00 0.00 34 1010.3
20260504192002 73 263 4.0 8.0 0.00 0.00 0.00 34 1010.3
20260504191503 73 274 2.0 10.0 0.00 0.00 0.00 34 1010.3
20260504191002 74 255 6.0 12.0 0.00 0.00 0.00 34 1010.3
20260504190502 74 298 6.0 12.0 0.00 0.00 0.00 34 1010.3
20260504190002 74 322 3.0 9.0 0.00 0.00 0.00 35 1010.3
20260504185003 73 257 5.0 12.0 0.00 0.00 0.00 35 1010.4
20260504184003 74 293 5.0 12.0 0.00 0.00 0.00 35 1010.5
20260504183502 72 280 5.0 14.0 0.00 0.00 0.00 35 1010.6
20260504183003 73 279 3.0 8.0 0.00 0.00 0.00 35 1010.7
20260504182503 72 310 6.0 12.0 0.00 0.00 0.00 36 1010.8
20260504182002 72 289 6.0 13.0 0.00 0.00 0.00 37 1010.5
20260504181502 71 280 6.0 12.0 0.00 0.00 0.00 37 1010.5
20260504175503 70 283 8.0 14.0 0.00 0.00 0.00 37 1010.4
20260504175003 70 300 4.0 12.0 0.00 0.00 0.00 37 1010.4
20260504174502 70 283 5.0 12.0 0.00 0.00 0.00 37 1010.4
20260504174003 70 296 3.0 9.0 0.00 0.00 0.00 38 1010.3
20260504173503 70 281 7.0 12.0 0.00 0.00 0.00 38 1010.3
20260504173003 70 294 3.0 6.0 0.00 0.00 0.00 38 1010.3
20260504172003 69 301 4.0 12.0 0.00 0.00 0.00 39 1010.3
20260504171503 69 279 5.0 12.0 0.00 0.00 0.00 39 1010.3
20260504171003 68 266 6.0 10.0 0.00 0.00 0.00 40 1010.3
20260504151002 64 300 9.0 16.0 0.00 0.00 0.00 48 1009.7
20260504150503 64 300 7.0 17.0 0.00 0.00 0.00 49 1009.8
20260504141003 63 298 6.0 17.0 0.00 0.00 0.00 51 1009.6
20260504130502 63 277 11.0 22.0 0.00 0.00 0.00 53 1008.8
20260504110503 64 312 9.0 18.0 0.00 0.00 0.00 49 1007.9
20260504100503 65 289 10.0 17.0 0.00 0.00 0.00 43 1007.7
20260504082002 66 308 3.0 9.0 0.00 0.00 0.00 41 1009.1
20260504081502 66 323 3.0 7.0 0.00 0.00 0.00 41 1009.4
20260504081003 66 267 6.0 12.0 0.00 0.00 0.00 43 1009.3
20260504050503 68 315 7.0 16.0 0.00 0.00 0.00 43 1006.1
20260504050002 69 322 8.0 16.0 0.00 0.00 0.00 43 1006.3
20260504045503 69 315 9.0 17.0 0.00 0.00 0.00 43 1006.0
20260504045002 69 314 9.0 18.0 0.00 0.00 0.00 42 1006.1
20260504044503 69 311 11.0 22.0 0.00 0.00 0.00 42 1006.1
20260504044002 69 299 11.0 20.0 0.00 0.00 0.00 43 1006.0
20260504043503 68 302 12.0 18.0 0.00 0.00 0.00 44 1005.9
20260504043003 68 315 7.0 15.0 0.00 0.00 0.00 46 1005.9
20260504042502 68 318 10.0 18.0 0.00 0.00 0.00 47 1006.0
20260504041503 68 301 10.0 26.0 0.00 0.00 0.00 47 1006.0
20260504041002 69 306 14.0 26.0 0.00 0.00 0.00 46 1006.0
20260504040503 69 307 10.0 24.0 0.00 0.00 0.00 46 1005.8
20260504040003 69 309 10.0 20.0 0.00 0.00 0.00 46 1005.7
20260504035003 69 319 9.0 20.0 0.00 0.00 0.00 47 1005.5
20260504034502 69 311 9.0 18.0 0.00 0.00 0.00 46 1005.5
20260504034003 69 308 10.0 25.0 0.00 0.00 0.00 46 1005.4
20260504033502 70 300 13.0 25.0 0.00 0.00 0.00 46 1005.5
20260504032503 71 305 12.0 20.0 0.00 0.00 0.00 44 1005.5
20260504032003 71 288 10.0 21.0 0.00 0.00 0.00 43 1005.5
20260504031502 72 290 16.0 25.0 0.00 0.00 0.00 42 1005.4
20260504031002 72 289 7.0 21.0 0.00 0.00 0.00 42 1004.9
20260504030502 73 278 8.0 21.0 0.00 0.00 0.00 41 1004.5
20260504030003 73 289 13.0 23.0 0.00 0.00 0.00 40 1004.5
20260504025503 73 280 11.0 20.0 0.00 0.00 0.00 40 1004.5
20260504025003 73 288 10.0 21.0 0.00 0.00 0.00 40 1004.8
20260504024002 74 278 9.0 23.0 0.00 0.00 0.00 40 1004.4
20260504023502 74 308 9.0 21.0 0.00 0.00 0.00 39 1004.3
20260504023003 74 292 14.0 24.0 0.00 0.00 0.00 40 1004.3
20260504022502 74 276 15.0 22.0 0.00 0.00 0.00 39 1004.2
20260504022003 75 280 14.0 31.0 0.00 0.00 0.00 39 1003.9
20260504021503 75 302 13.0 23.0 0.00 0.00 0.00 38 1004.0
20260504021003 76 277 14.0 23.0 0.00 0.00 0.00 37 1004.1
20260504020503 76 283 12.0 25.0 0.00 0.00 0.00 37 1003.9
20260504020002 76 282 16.0 25.0 0.00 0.00 0.00 37 1003.8
20260504015003 77 292 14.0 22.0 0.00 0.00 0.00 35 1003.8
20260504014503 77 286 13.0 23.0 0.00 0.00 0.00 36 1003.8
20260504014002 77 282 13.0 24.0 0.00 0.00 0.00 37 1003.7
20260504013503 77 291 13.0 23.0 0.00 0.00 0.00 37 1003.8
20260504012503 78 275 12.0 28.0 0.00 0.00 0.00 36 1003.8
20260504012002 78 295 13.0 25.0 0.00 0.00 0.00 36 1003.9
20260504011502 79 292 15.0 24.0 0.00 0.00 0.00 36 1003.8
20260504010502 80 284 15.0 28.0 0.00 0.00 0.00 34 1003.4
20260504010003 80 318 13.0 26.0 0.00 0.00 0.00 33 1003.5
20260504005503 81 288 11.0 26.0 0.00 0.00 0.00 32 1003.7
20260504005003 81 296 12.0 21.0 0.00 0.00 0.00 31 1003.5
20260504004502 81 287 14.0 22.0 0.00 0.00 0.00 32 1003.5
20260504004002 82 276 10.0 20.0 0.00 0.00 0.00 32 1003.4
20260504003502 81 288 10.0 20.0 0.00 0.00 0.00 33 1003.3
20260504003003 82 292 12.0 23.0 0.00 0.00 0.00 32 1003.4
20260504002503 82 285 14.0 24.0 0.00 0.00 0.00 31 1003.3
20260504002002 82 299 12.0 23.0 0.00 0.00 0.00 32 1003.3
20260504001503 83 289 10.0 23.0 0.00 0.00 0.00 31 1003.3
20260504001003 83 305 10.0 21.0 0.00 0.00 0.00 32 1003.3
20260504000003 83 308 9.0 20.0 0.00 0.00 0.00 33 1003.3
20260503235503 83 300 12.0 22.0 0.00 0.00 0.00 32 1003.7
20260503235003 83 297 9.0 20.0 0.00 0.00 0.00 33 1003.5
20260503234502 82 308 12.0 23.0 0.00 0.00 0.00 34 1003.5
20260503234003 82 310 14.0 22.0 0.00 0.00 0.00 33 1003.7
20260503233503 82 301 13.0 28.0 0.00 0.00 0.00 33 1003.5
20260503233002 83 289 14.0 28.0 0.00 0.00 0.00 33 1003.5
20260503232502 83 289 13.0 28.0 0.00 0.00 0.00 32 1003.6
20260503232003 83 283 17.0 29.0 0.00 0.00 0.00 32 1003.3
20260503231502 82 295 13.0 26.0 0.00 0.00 0.00 34 1003.3
20260503231002 82 273 17.0 31.0 0.00 0.00 0.00 34 1003.3
20260503230503 82 290 17.0 29.0 0.00 0.00 0.00 34 1003.3
20260503230002 82 290 18.0 28.0 0.00 0.00 0.00 34 1003.3